| time (UTC) | temp F | wind direction | speed MPH | gust MPH | rain 1hr in | rain 24hr in | rain mn in | humidity % | barometer mb |
| 20260507192729 | 62 | 67 | 3.0 | 6.0 | 0.00 | 0.00 | 0.00 | 81 | 1013.5 |
| 20260507192322 | 62 | 56 | 4.0 | 6.0 | 0.00 | 0.00 | 0.00 | 81 | 1013.4 |
| 20260507191723 | 62 | 66 | 4.0 | 7.0 | 0.00 | 0.00 | 0.00 | 80 | 1013.3 |
| 20260507191318 | 62 | 83 | 4.0 | 7.0 | 0.00 | 0.00 | 0.00 | 80 | 1013.3 |
| 20260507190720 | 62 | 91 | 5.0 | 7.0 | 0.00 | 0.00 | 0.00 | 80 | 1013.2 |
| 20260507190344 | 62 | 77 | 3.0 | 7.0 | 0.00 | 0.00 | 0.00 | 80 | 1013.2 |
| 20260507185712 | 62 | 86 | 5.0 | 6.0 | 0.00 | 0.00 | 0.00 | 80 | 1013.1 |
| 20260507185651 | 62 | 70 | 4.0 | 8.0 | 0.00 | 0.00 | 0.00 | 79 | 1013.1 |
| 20260507184712 | 62 | 58 | 4.0 | 9.0 | 0.00 | 0.00 | 0.00 | 79 | 1013.0 |
| 20260507184305 | 63 | 95 | 6.0 | 11.0 | 0.00 | 0.00 | 0.00 | 78 | 1013.0 |
| 20260507183712 | 63 | 82 | 5.0 | 11.0 | 0.00 | 0.00 | 0.00 | 78 | 1012.9 |
| 20260507183300 | 63 | 84 | 7.0 | 11.0 | 0.00 | 0.00 | 0.00 | 77 | 1012.8 |
| 20260507182712 | 63 | 72 | 6.0 | 11.0 | 0.00 | 0.00 | 0.00 | 77 | 1012.7 |
| 20260507182212 | 63 | 84 | 5.0 | 9.0 | 0.00 | 0.00 | 0.00 | 77 | 1012.8 |
| 20260507181712 | 63 | 65 | 7.0 | 9.0 | 0.00 | 0.00 | 0.00 | 77 | 1012.7 |
| 20260507181259 | 63 | 101 | 5.0 | 11.0 | 0.00 | 0.00 | 0.00 | 78 | 1012.7 |
| 20260507180835 | 63 | 58 | 7.0 | 11.0 | 0.00 | 0.00 | 0.00 | 78 | 1012.6 |
| 20260507180305 | 63 | 54 | 5.0 | 9.0 | 0.00 | 0.00 | 0.00 | 77 | 1012.5 |
| 20260507175717 | 63 | 50 | 6.0 | 11.0 | 0.00 | 0.00 | 0.00 | 77 | 1012.5 |
| 20260507175237 | 63 | 114 | 7.0 | 11.0 | 0.00 | 0.00 | 0.00 | 78 | 1012.6 |
| 20260507174805 | 63 | 89 | 7.0 | 11.0 | 0.00 | 0.00 | 0.00 | 78 | 1012.6 |
| 20260507174542 | 63 | 92 | 9.0 | 12.0 | 0.00 | 0.00 | 0.00 | 77 | 1012.7 |
| 20260507174358 | 63 | 66 | 9.0 | 11.0 | 0.00 | 0.00 | 0.00 | 77 | 1012.6 |
| 20260507174022 | 63 | 48 | 7.0 | 11.0 | 0.00 | 0.00 | 0.00 | 77 | 1012.6 |
| 20260507172816 | 63 | 120 | 9.0 | 13.0 | 0.00 | 0.00 | 0.00 | 77 | 1012.7 |
| 20260507172211 | 63 | 72 | 8.0 | 13.0 | 0.00 | 0.00 | 0.00 | 76 | 1012.7 |
| 20260507172146 | 63 | 98 | 9.0 | 13.0 | 0.00 | 0.00 | 0.00 | 77 | 1012.6 |
| 20260507171211 | 63 | 114 | 9.0 | 14.0 | 0.00 | 0.00 | 0.00 | 77 | 1012.5 |
| 20260507170956 | 63 | 101 | 9.0 | 13.0 | 0.00 | 0.00 | 0.00 | 76 | 1012.4 |
| 20260507170918 | 63 | 64 | 10.0 | 14.0 | 0.00 | 0.00 | 0.00 | 76 | 1012.4 |
| 20260507170427 | 63 | 81 | 8.0 | 12.0 | 0.00 | 0.00 | 0.00 | 76 | 1012.5 |
| 20260507165758 | 63 | 90 | 9.0 | 13.0 | 0.00 | 0.00 | 0.00 | 76 | 1012.5 |
| 20260507164710 | 63 | 86 | 7.0 | 14.0 | 0.00 | 0.00 | 0.00 | 76 | 1012.4 |
| 20260507164211 | 63 | 86 | 10.0 | 14.0 | 0.00 | 0.00 | 0.00 | 75 | 1012.3 |
| 20260507163749 | 64 | 101 | 9.0 | 13.0 | 0.00 | 0.00 | 0.00 | 75 | 1012.3 |
| 20260507163428 | 63 | 75 | 9.0 | 13.0 | 0.00 | 0.00 | 0.00 | 74 | 1012.3 |
| 20260507163407 | 64 | 35 | 7.0 | 12.0 | 0.00 | 0.00 | 0.00 | 75 | 1012.3 |
| 20260507163339 | 64 | 91 | 7.0 | 13.0 | 0.00 | 0.00 | 0.00 | 75 | 1012.3 |
| 20260507163105 | 64 | 91 | 9.0 | 13.0 | 0.00 | 0.00 | 0.00 | 74 | 1012.3 |
| 20260507161931 | 64 | 99 | 8.0 | 13.0 | 0.00 | 0.00 | 0.00 | 76 | 1012.3 |
| 20260507161041 | 64 | 96 | 7.0 | 13.0 | 0.00 | 0.00 | 0.00 | 74 | 1012.4 |
| 20260507161036 | 64 | 71 | 9.0 | 13.0 | 0.00 | 0.00 | 0.00 | 73 | 1012.4 |
| 20260507160926 | 64 | 84 | 8.0 | 13.0 | 0.00 | 0.00 | 0.00 | 74 | 1012.3 |
| 20260507160558 | 64 | 65 | 10.0 | 12.0 | 0.00 | 0.00 | 0.00 | 73 | 1012.3 |
| 20260507154945 | 64 | 96 | 7.0 | 11.0 | 0.00 | 0.00 | 0.00 | 73 | 1012.5 |
| 20260507154939 | 64 | 113 | 9.0 | 11.0 | 0.00 | 0.00 | 0.00 | 72 | 1012.7 |
| 20260507154750 | 64 | 112 | 8.0 | 11.0 | 0.00 | 0.00 | 0.00 | 72 | 1012.5 |
| 20260507153311 | 64 | 119 | 6.0 | 11.0 | 0.00 | 0.00 | 0.00 | 72 | 1012.7 |
| 20260507152711 | 65 | 122 | 6.0 | 11.0 | 0.00 | 0.00 | 0.00 | 71 | 1012.7 |
| 20260507152317 | 64 | 93 | 9.0 | 13.0 | 0.00 | 0.00 | 0.00 | 71 | 1012.8 |
| 20260507152306 | 65 | 117 | 6.0 | 12.0 | 0.00 | 0.00 | 0.00 | 72 | 1012.7 |
| 20260507151211 | 64 | 110 | 6.0 | 13.0 | 0.00 | 0.00 | 0.00 | 71 | 1012.7 |
| 20260507151055 | 64 | 118 | 9.0 | 12.0 | 0.00 | 0.00 | 0.00 | 71 | 1012.8 |
| 20260507150251 | 65 | 129 | 8.0 | 12.0 | 0.00 | 0.00 | 0.00 | 71 | 1012.9 |
| 20260507145835 | 65 | 95 | 8.0 | 13.0 | 0.00 | 0.00 | 0.00 | 69 | 1012.8 |
| 20260507145757 | 65 | 116 | 9.0 | 14.0 | 0.00 | 0.00 | 0.00 | 70 | 1013.0 |
| 20260507145417 | 64 | 130 | 8.0 | 14.0 | 0.00 | 0.00 | 0.00 | 70 | 1013.0 |
| 20260507144238 | 65 | 89 | 9.0 | 12.0 | 0.00 | 0.00 | 0.00 | 70 | 1012.7 |
| 20260507143827 | 64 | 102 | 5.0 | 12.0 | 0.00 | 0.00 | 0.00 | 69 | 1012.8 |
| 20260507143233 | 64 | 116 | 9.0 | 12.0 | 0.00 | 0.00 | 0.00 | 69 | 1012.8 |
| 20260507142824 | 64 | 110 | 8.0 | 12.0 | 0.00 | 0.00 | 0.00 | 69 | 1012.7 |
| 20260507142228 | 64 | 130 | 8.0 | 14.0 | 0.00 | 0.00 | 0.00 | 70 | 1012.8 |
| 20260507141819 | 64 | 71 | 9.0 | 14.0 | 0.00 | 0.00 | 0.00 | 70 | 1012.9 |
| 20260507141211 | 64 | 104 | 9.0 | 14.0 | 0.00 | 0.00 | 0.00 | 70 | 1013.0 |
| 20260507140813 | 64 | 111 | 10.0 | 14.0 | 0.00 | 0.00 | 0.00 | 69 | 1013.0 |
| 20260507140212 | 65 | 80 | 9.0 | 15.0 | 0.00 | 0.00 | 0.00 | 69 | 1013.0 |
| 20260507140031 | 64 | 113 | 9.0 | 14.0 | 0.00 | 0.00 | 0.00 | 68 | 1013.3 |
| 20260507135940 | 65 | 68 | 8.0 | 15.0 | 0.00 | 0.00 | 0.00 | 68 | 1013.1 |
| 20260507135310 | 64 | 91 | 9.0 | 14.0 | 0.00 | 0.00 | 0.00 | 69 | 1013.3 |
| 20260507134211 | 65 | 124 | 8.0 | 14.0 | 0.00 | 0.00 | 0.00 | 68 | 1013.5 |
| 20260507133711 | 64 | 112 | 9.0 | 13.0 | 0.00 | 0.00 | 0.00 | 70 | 1013.4 |
| 20260507133211 | 64 | 111 | 9.0 | 14.0 | 0.00 | 0.00 | 0.00 | 68 | 1013.3 |
| 20260507132752 | 65 | 72 | 11.0 | 14.0 | 0.00 | 0.00 | 0.00 | 69 | 1013.5 |
| 20260507132211 | 64 | 93 | 11.0 | 14.0 | 0.00 | 0.00 | 0.00 | 68 | 1013.6 |
| 20260507131746 | 64 | 103 | 9.0 | 12.0 | 0.00 | 0.00 | 0.00 | 69 | 1013.7 |
| 20260507131215 | 65 | 89 | 7.0 | 12.0 | 0.00 | 0.00 | 0.00 | 68 | 1013.8 |
| 20260507131207 | 64 | 139 | 8.0 | 13.0 | 0.00 | 0.00 | 0.00 | 69 | 1013.8 |
| 20260507130333 | 64 | 120 | 9.0 | 13.0 | 0.00 | 0.00 | 0.00 | 69 | 1013.9 |
| 20260507130016 | 64 | 93 | 6.0 | 13.0 | 0.00 | 0.00 | 0.00 | 70 | 1014.0 |
| 20260507125806 | 64 | 109 | 8.0 | 13.0 | 0.00 | 0.00 | 0.00 | 67 | 1013.9 |
| 20260507125436 | 65 | 96 | 7.0 | 12.0 | 0.00 | 0.00 | 0.00 | 68 | 1014.0 |
| 20260507124354 | 64 | 103 | 8.0 | 13.0 | 0.00 | 0.00 | 0.00 | 70 | 1014.1 |
| 20260507123711 | 64 | 111 | 9.0 | 12.0 | 0.00 | 0.00 | 0.00 | 69 | 1014.2 |
| 20260507123319 | 64 | 115 | 7.0 | 11.0 | 0.00 | 0.00 | 0.00 | 71 | 1014.1 |
| 20260507122711 | 65 | 108 | 6.0 | 13.0 | 0.00 | 0.00 | 0.00 | 69 | 1014.2 |
| 20260507122312 | 64 | 108 | 9.0 | 13.0 | 0.00 | 0.00 | 0.00 | 70 | 1014.2 |
| 20260507121714 | 65 | 98 | 8.0 | 12.0 | 0.00 | 0.00 | 0.00 | 70 | 1014.2 |
| 20260507121233 | 64 | 115 | 8.0 | 13.0 | 0.00 | 0.00 | 0.00 | 71 | 1014.2 |
| 20260507120711 | 64 | 113 | 8.0 | 13.0 | 0.00 | 0.00 | 0.00 | 71 | 1014.3 |
| 20260507120209 | 65 | 112 | 8.0 | 13.0 | 0.00 | 0.00 | 0.00 | 70 | 1014.3 |
| 20260507115717 | 65 | 120 | 8.0 | 12.0 | 0.00 | 0.00 | 0.00 | 71 | 1014.3 |
| 20260507115258 | 64 | 97 | 7.0 | 11.0 | 0.00 | 0.00 | 0.00 | 71 | 1014.3 |
| 20260507114710 | 64 | 118 | 7.0 | 11.0 | 0.00 | 0.00 | 0.00 | 71 | 1014.3 |
| 20260507114322 | 64 | 96 | 8.0 | 11.0 | 0.00 | 0.00 | 0.00 | 71 | 1014.2 |
| 20260507113709 | 64 | 124 | 6.0 | 12.0 | 0.00 | 0.00 | 0.00 | 71 | 1014.1 |
| 20260507113247 | 64 | 109 | 9.0 | 12.0 | 0.00 | 0.00 | 0.00 | 71 | 1014.2 |
| 20260507112710 | 64 | 69 | 7.0 | 11.0 | 0.00 | 0.00 | 0.00 | 71 | 1014.2 |
| 20260507112537 | 64 | 134 | 8.0 | 11.0 | 0.00 | 0.00 | 0.00 | 69 | 1014.2 |
| 20260507111835 | 65 | 154 | 6.0 | 11.0 | 0.00 | 0.00 | 0.00 | 70 | 1014.2 |
| 20260507111423 | 64 | 127 | 8.0 | 10.0 | 0.00 | 0.00 | 0.00 | 73 | 1014.5 |
| 20260507111414 | 64 | 58 | 7.0 | 12.0 | 0.00 | 0.00 | 0.00 | 71 | 1014.3 |
| 20260507111338 | 64 | 117 | 7.0 | 11.0 | 0.00 | 0.00 | 0.00 | 70 | 1014.2 |
| 20260507110351 | 64 | 72 | 6.0 | 12.0 | 0.00 | 0.00 | 0.00 | 71 | 1014.4 |
| 20260507110124 | 64 | 87 | 7.0 | 11.0 | 0.00 | 0.00 | 0.00 | 74 | 1014.7 |
| 20260507105907 | 64 | 110 | 8.0 | 11.0 | 0.00 | 0.00 | 0.00 | 72 | 1014.4 |
| 20260507105419 | 64 | 70 | 8.0 | 11.0 | 0.00 | 0.00 | 0.00 | 72 | 1014.5 |
| 20260507104349 | 64 | 108 | 7.0 | 10.0 | 0.00 | 0.00 | 0.00 | 72 | 1014.6 |
| 20260507103215 | 64 | 110 | 7.0 | 11.0 | 0.00 | 0.00 | 0.00 | 73 | 1014.8 |
| 20260507102710 | 64 | 79 | 7.0 | 11.0 | 0.00 | 0.00 | 0.00 | 74 | 1014.8 |
| 20260507102211 | 64 | 105 | 8.0 | 11.0 | 0.00 | 0.00 | 0.00 | 74 | 1014.7 |
| 20260507101800 | 64 | 81 | 8.0 | 11.0 | 0.00 | 0.00 | 0.00 | 74 | 1014.7 |
| 20260507101504 | 63 | 135 | 6.0 | 11.0 | 0.00 | 0.00 | 0.00 | 74 | 1014.9 |
| 20260507100823 | 63 | 117 | 7.0 | 12.0 | 0.00 | 0.00 | 0.00 | 74 | 1014.9 |
| 20260507100211 | 63 | 106 | 9.0 | 12.0 | 0.00 | 0.00 | 0.00 | 74 | 1014.8 |
| 20260507095749 | 64 | 120 | 7.0 | 12.0 | 0.00 | 0.00 | 0.00 | 74 | 1014.8 |
| 20260507095209 | 64 | 108 | 6.0 | 12.0 | 0.00 | 0.00 | 0.00 | 74 | 1014.8 |
| 20260507094743 | 64 | 85 | 8.0 | 12.0 | 0.00 | 0.00 | 0.00 | 73 | 1014.8 |
| 20260507094210 | 64 | 128 | 6.0 | 11.0 | 0.00 | 0.00 | 0.00 | 74 | 1014.8 |
| 20260507093807 | 64 | 82 | 7.0 | 13.0 | 0.00 | 0.00 | 0.00 | 74 | 1014.8 |
| 20260507093329 | 63 | 100 | 9.0 | 13.0 | 0.00 | 0.00 | 0.00 | 74 | 1014.8 |
| 20260507092710 | 63 | 107 | 9.0 | 13.0 | 0.00 | 0.00 | 0.00 | 75 | 1014.8 |
| 20260507092644 | 64 | 72 | 9.0 | 13.0 | 0.00 | 0.00 | 0.00 | 75 | 1014.8 |
| 20260507091710 | 64 | 91 | 8.0 | 13.0 | 0.00 | 0.00 | 0.00 | 74 | 1014.8 |
| 20260507091321 | 64 | 96 | 9.0 | 13.0 | 0.00 | 0.00 | 0.00 | 74 | 1014.7 |
| 20260507090753 | 64 | 82 | 9.0 | 12.0 | 0.00 | 0.00 | 0.00 | 75 | 1014.6 |
| 20260507090254 | 64 | 95 | 7.0 | 11.0 | 0.00 | 0.00 | 0.00 | 74 | 1014.6 |
| 20260507085716 | 63 | 136 | 7.0 | 12.0 | 0.00 | 0.00 | 0.00 | 75 | 1014.6 |
| 20260507085209 | 63 | 49 | 7.0 | 14.0 | 0.00 | 0.00 | 0.00 | 75 | 1014.5 |
| 20260507084710 | 63 | 65 | 10.0 | 14.0 | 0.00 | 0.00 | 0.00 | 75 | 1014.6 |
| 20260507084303 | 63 | 101 | 8.0 | 12.0 | 0.00 | 0.00 | 0.00 | 75 | 1014.6 |
| 20260507083736 | 63 | 89 | 9.0 | 12.0 | 0.00 | 0.00 | 0.00 | 75 | 1014.6 |
| 20260507083302 | 62 | 108 | 6.0 | 14.0 | 0.00 | 0.00 | 0.00 | 77 | 1014.5 |
| 20260507082713 | 62 | 84 | 10.0 | 14.0 | 0.00 | 0.00 | 0.00 | 77 | 1014.4 |
| 20260507082259 | 62 | 82 | 9.0 | 14.0 | 0.00 | 0.00 | 0.00 | 77 | 1014.5 |
| 20260507081709 | 63 | 75 | 10.0 | 14.0 | 0.00 | 0.00 | 0.00 | 76 | 1014.5 |
| 20260507081253 | 63 | 99 | 8.0 | 14.0 | 0.00 | 0.00 | 0.00 | 76 | 1014.5 |
| 20260507080724 | 63 | 60 | 9.0 | 14.0 | 0.00 | 0.00 | 0.00 | 74 | 1014.5 |
| 20260507080311 | 63 | 115 | 9.0 | 12.0 | 0.00 | 0.00 | 0.00 | 76 | 1014.6 |
| 20260507075831 | 63 | 106 | 8.0 | 11.0 | 0.00 | 0.00 | 0.00 | 75 | 1014.5 |
| 20260507075210 | 63 | 96 | 8.0 | 12.0 | 0.00 | 0.00 | 0.00 | 75 | 1014.6 |
| 20260507074827 | 63 | 91 | 8.0 | 13.0 | 0.00 | 0.00 | 0.00 | 76 | 1014.5 |
| 20260507074235 | 63 | 79 | 8.0 | 13.0 | 0.00 | 0.00 | 0.00 | 78 | 1014.6 |
| 20260507073828 | 63 | 65 | 10.0 | 13.0 | 0.00 | 0.00 | 0.00 | 78 | 1014.6 |
| 20260507073232 | 62 | 96 | 9.0 | 14.0 | 0.00 | 0.00 | 0.00 | 78 | 1014.6 |
| 20260507072825 | 62 | 44 | 9.0 | 14.0 | 0.00 | 0.00 | 0.00 | 79 | 1014.6 |
| 20260507072810 | 62 | 79 | 11.0 | 14.0 | 0.00 | 0.00 | 0.00 | 79 | 1014.7 |
| 20260507071710 | 62 | 62 | 9.0 | 14.0 | 0.00 | 0.00 | 0.00 | 80 | 1014.6 |
| 20260507071220 | 62 | 64 | 11.0 | 13.0 | 0.00 | 0.00 | 0.00 | 80 | 1014.5 |
| 20260507070807 | 62 | 50 | 6.0 | 13.0 | 0.00 | 0.00 | 0.00 | 80 | 1014.5 |
| 20260507070233 | 62 | 73 | 9.0 | 11.0 | 0.00 | 0.00 | 0.00 | 79 | 1014.4 |
| 20260507065759 | 62 | 89 | 6.0 | 15.0 | 0.00 | 0.00 | 0.00 | 79 | 1014.4 |
| 20260507065212 | 62 | 75 | 9.0 | 15.0 | 0.00 | 0.00 | 0.00 | 79 | 1014.3 |
| 20260507064755 | 62 | 62 | 6.0 | 10.0 | 0.00 | 0.00 | 0.00 | 79 | 1014.3 |
| 20260507064210 | 62 | 79 | 8.0 | 10.0 | 0.00 | 0.00 | 0.00 | 78 | 1014.2 |
| 20260507063754 | 62 | 66 | 8.0 | 11.0 | 0.00 | 0.00 | 0.00 | 78 | 1014.2 |
| 20260507063210 | 62 | 58 | 7.0 | 11.0 | 0.00 | 0.00 | 0.00 | 78 | 1014.2 |
| 20260507062743 | 62 | 76 | 8.0 | 10.0 | 0.00 | 0.00 | 0.00 | 76 | 1014.0 |
| 20260507062332 | 62 | 74 | 8.0 | 10.0 | 0.00 | 0.00 | 0.00 | 76 | 1014.0 |
| 20260507061711 | 62 | 71 | 7.0 | 9.0 | 0.00 | 0.00 | 0.00 | 76 | 1014.0 |
| 20260507061325 | 62 | 91 | 6.0 | 10.0 | 0.00 | 0.00 | 0.00 | 76 | 1013.9 |
| 20260507060730 | 62 | 65 | 6.0 | 10.0 | 0.00 | 0.00 | 0.00 | 76 | 1013.9 |
| 20260507060339 | 61 | 44 | 7.0 | 9.0 | 0.00 | 0.00 | 0.00 | 76 | 1013.8 |
| 20260507055727 | 61 | 77 | 6.0 | 7.0 | 0.00 | 0.00 | 0.00 | 76 | 1013.8 |
| 20260507055220 | 61 | 52 | 5.0 | 7.0 | 0.00 | 0.00 | 0.00 | 77 | 1013.7 |
| 20260507054721 | 61 | 65 | 3.0 | 6.0 | 0.00 | 0.00 | 0.00 | 78 | 1013.7 |
| 20260507054208 | 61 | 56 | 5.0 | 6.0 | 0.00 | 0.00 | 0.00 | 78 | 1013.7 |
| 20260507053715 | 60 | 53 | 4.0 | 5.0 | 0.00 | 0.00 | 0.00 | 79 | 1013.7 |
| 20260507053302 | 60 | 32 | 3.0 | 5.0 | 0.00 | 0.00 | 0.00 | 79 | 1013.7 |
| 20260507052711 | 60 | 51 | 3.0 | 4.0 | 0.00 | 0.00 | 0.00 | 80 | 1013.7 |
| 20260507052306 | 60 | 37 | 3.0 | 5.0 | 0.00 | 0.00 | 0.00 | 80 | 1013.6 |
| 20260507051708 | 60 | 30 | 3.0 | 5.0 | 0.00 | 0.00 | 0.00 | 80 | 1013.5 |
| 20260507051256 | 60 | 30 | 4.0 | 5.0 | 0.00 | 0.00 | 0.00 | 81 | 1013.4 |
| 20260507050709 | 59 | 15 | 4.0 | 5.0 | 0.00 | 0.00 | 0.00 | 81 | 1013.4 |
| 20260507050357 | 59 | 24 | 4.0 | 5.0 | 0.00 | 0.00 | 0.00 | 82 | 1013.3 |
| 20260507045707 | 59 | 359 | 4.0 | 5.0 | 0.00 | 0.00 | 0.00 | 82 | 1013.3 |
| 20260507045244 | 59 | 3 | 3.0 | 5.0 | 0.00 | 0.00 | 0.00 | 83 | 1013.3 |
| 20260507044708 | 59 | 307 | 3.0 | 5.0 | 0.00 | 0.00 | 0.00 | 83 | 1013.4 |
| 20260507044209 | 59 | 344 | 3.0 | 5.0 | 0.00 | 0.00 | 0.00 | 83 | 1013.4 |
| 20260507044122 | 59 | 337 | 2.0 | 4.0 | 0.00 | 0.00 | 0.00 | 83 | 1013.3 |
| 20260507044118 | 59 | 359 | 2.0 | 5.0 | 0.00 | 0.00 | 0.00 | 82 | 1013.4 |
| 20260507044022 | 58 | 326 | 4.0 | 5.0 | 0.00 | 0.00 | 0.00 | 83 | 1013.4 |
| 20260507043537 | 59 | 347 | 4.0 | 4.0 | 0.00 | 0.00 | 0.00 | 83 | 1013.4 |
| 20260507041721 | 59 | 18 | 4.0 | 5.0 | 0.00 | 0.00 | 0.00 | 83 | 1013.3 |
| 20260507041234 | 59 | 34 | 4.0 | 6.0 | 0.00 | 0.00 | 0.00 | 83 | 1013.3 |
| 20260507040709 | 59 | 32 | 4.0 | 6.0 | 0.00 | 0.00 | 0.00 | 83 | 1013.2 |
| 20260507040255 | 59 | 30 | 4.0 | 5.0 | 0.00 | 0.00 | 0.00 | 83 | 1013.3 |
| 20260507035805 | 59 | 27 | 4.0 | 4.0 | 0.00 | 0.00 | 0.00 | 84 | 1013.3 |
| 20260507035211 | 59 | 8 | 3.0 | 5.0 | 0.00 | 0.00 | 0.00 | 84 | 1013.3 |
| 20260507034759 | 59 | 26 | 4.0 | 5.0 | 0.00 | 0.00 | 0.00 | 84 | 1013.3 |
| 20260507034210 | 59 | 25 | 3.0 | 5.0 | 0.00 | 0.00 | 0.00 | 84 | 1013.3 |
| 20260507033759 | 59 | 34 | 3.0 | 5.0 | 0.00 | 0.00 | 0.00 | 84 | 1013.3 |
| 20260507033209 | 59 | 36 | 4.0 | 5.0 | 0.00 | 0.00 | 0.00 | 84 | 1013.3 |
| 20260507032820 | 59 | 32 | 3.0 | 4.0 | 0.00 | 0.00 | 0.00 | 84 | 1013.3 |
| 20260507032208 | 59 | 37 | 3.0 | 4.0 | 0.00 | 0.00 | 0.00 | 84 | 1013.4 |
| 20260507031744 | 59 | 38 | 3.0 | 4.0 | 0.00 | 0.00 | 0.00 | 83 | 1013.4 |
| 20260507031207 | 59 | 35 | 3.0 | 4.0 | 0.00 | 0.00 | 0.00 | 83 | 1013.4 |
| 20260507030724 | 59 | 51 | 4.0 | 5.0 | 0.00 | 0.00 | 0.00 | 81 | 1013.4 |
| 20260507030714 | 59 | 32 | 3.0 | 6.0 | 0.00 | 0.00 | 0.00 | 83 | 1013.4 |
| 20260507030704 | 59 | 46 | 4.0 | 5.0 | 0.00 | 0.00 | 0.00 | 82 | 1013.4 |
| 20260507030612 | 59 | 30 | 4.0 | 6.0 | 0.00 | 0.00 | 0.00 | 82 | 1013.5 |
| 20260507030034 | 59 | 38 | 4.0 | 5.0 | 0.00 | 0.00 | 0.00 | 82 | 1013.5 |
| 20260507024815 | 59 | 46 | 4.0 | 5.0 | 0.00 | 0.00 | 0.00 | 82 | 1013.5 |
| 20260507023717 | 59 | 39 | 3.0 | 6.0 | 0.00 | 0.00 | 0.00 | 81 | 1013.4 |
| 20260507023208 | 59 | 37 | 4.0 | 6.0 | 0.00 | 0.00 | 0.00 | 81 | 1013.4 |
| 20260507023041 | 59 | 48 | 4.0 | 6.0 | 0.00 | 0.00 | 0.00 | 80 | 1013.3 |
| 20260507022755 | 59 | 37 | 4.0 | 6.0 | 0.00 | 0.00 | 0.00 | 80 | 1013.4 |
| 20260507022422 | 60 | 56 | 4.0 | 6.0 | 0.00 | 0.00 | 0.00 | 80 | 1013.4 |
| 20260507021259 | 60 | 38 | 4.0 | 6.0 | 0.00 | 0.00 | 0.00 | 80 | 1013.4 |
| 20260507020708 | 60 | 41 | 4.0 | 5.0 | 0.00 | 0.00 | 0.00 | 80 | 1013.4 |
| 20260507020656 | 60 | 30 | 3.0 | 5.0 | 0.00 | 0.00 | 0.00 | 81 | 1013.6 |
| 20260507020447 | 60 | 28 | 3.0 | 5.0 | 0.00 | 0.00 | 0.00 | 79 | 1013.4 |
| 20260507015907 | 60 | 27 | 3.0 | 5.0 | 0.00 | 0.00 | 0.00 | 80 | 1013.4 |
| 20260507015344 | 60 | 16 | 4.0 | 5.0 | 0.00 | 0.00 | 0.00 | 80 | 1013.4 |
| 20260507014818 | 60 | 28 | 4.0 | 5.0 | 0.00 | 0.00 | 0.00 | 81 | 1013.5 |
| 20260507013709 | 60 | 45 | 3.0 | 5.0 | 0.00 | 0.00 | 0.00 | 81 | 1013.5 |
| 20260507013208 | 60 | 34 | 4.0 | 6.0 | 0.00 | 0.00 | 0.00 | 81 | 1013.5 |
| 20260507012830 | 60 | 44 | 4.0 | 6.0 | 0.00 | 0.00 | 0.00 | 81 | 1013.5 |
| 20260507012237 | 60 | 46 | 3.0 | 7.0 | 0.00 | 0.00 | 0.00 | 81 | 1013.5 |
| 20260507011825 | 60 | 51 | 5.0 | 7.0 | 0.00 | 0.00 | 0.00 | 81 | 1013.5 |
| 20260507011231 | 60 | 50 | 4.0 | 6.0 | 0.00 | 0.00 | 0.00 | 82 | 1013.5 |
| 20260507010746 | 60 | 39 | 4.0 | 6.0 | 0.00 | 0.00 | 0.00 | 82 | 1013.6 |
| 20260507010248 | 60 | 42 | 5.0 | 6.0 | 0.00 | 0.00 | 0.00 | 82 | 1013.6 |
| 20260507005712 | 60 | 46 | 5.0 | 6.0 | 0.00 | 0.00 | 0.00 | 83 | 1013.6 |
| 20260507005223 | 60 | 48 | 4.0 | 6.0 | 0.00 | 0.00 | 0.00 | 83 | 1013.8 |
| 20260507004805 | 60 | 41 | 4.0 | 6.0 | 0.00 | 0.00 | 0.00 | 83 | 1013.8 |
| 20260507004209 | 60 | 50 | 3.0 | 6.0 | 0.00 | 0.00 | 0.00 | 82 | 1013.9 |
| 20260507003759 | 60 | 41 | 4.0 | 7.0 | 0.00 | 0.00 | 0.00 | 82 | 1013.8 |
| 20260507003209 | 60 | 65 | 4.0 | 7.0 | 0.00 | 0.00 | 0.00 | 82 | 1013.9 |
| 20260507002754 | 60 | 56 | 4.0 | 8.0 | 0.00 | 0.00 | 0.00 | 81 | 1013.9 |
| 20260507002208 | 60 | 43 | 6.0 | 8.0 | 0.00 | 0.00 | 0.00 | 81 | 1013.9 |
| 20260507001747 | 60 | 51 | 4.0 | 6.0 | 0.00 | 0.00 | 0.00 | 82 | 1013.8 |
| 20260507001209 | 60 | 56 | 2.0 | 5.0 | 0.00 | 0.00 | 0.00 | 82 | 1013.8 |
| 20260507000850 | 60 | 71 | 4.0 | 6.0 | 0.00 | 0.00 | 0.00 | 83 | 1013.9 |
| 20260507000820 | 60 | 41 | 3.0 | 6.0 | 0.00 | 0.00 | 0.00 | 82 | 1014.0 |
| 20260507000328 | 60 | 40 | 5.0 | 6.0 | 0.00 | 0.00 | 0.00 | 82 | 1014.0 |
| 20260506235327 | 60 | 44 | 3.0 | 5.0 | 0.00 | 0.00 | 0.00 | 83 | 1013.9 |
| 20260506234708 | 60 | 58 | 4.0 | 5.0 | 0.00 | 0.00 | 0.00 | 83 | 1014.0 |
| 20260506234333 | 61 | 47 | 3.0 | 7.0 | 0.00 | 0.00 | 0.00 | 84 | 1014.1 |
| 20260506233722 | 61 | 68 | 4.0 | 8.0 | 0.00 | 0.00 | 0.00 | 84 | 1014.1 |
| 20260506233240 | 61 | 84 | 6.0 | 8.0 | 0.00 | 0.00 | 0.00 | 84 | 1013.9 |
| 20260506232716 | 61 | 58 | 6.0 | 9.0 | 0.00 | 0.00 | 0.00 | 84 | 1013.9 |
| 20260506232208 | 61 | 61 | 6.0 | 11.0 | 0.00 | 0.00 | 0.00 | 85 | 1013.9 |
| 20260506231710 | 61 | 67 | 7.0 | 11.0 | 0.00 | 0.00 | 0.00 | 85 | 1013.9 |
| 20260506231302 | 61 | 56 | 8.0 | 11.0 | 0.00 | 0.00 | 0.00 | 85 | 1013.9 |
| 20260506230706 | 61 | 51 | 8.0 | 13.0 | 0.00 | 0.00 | 0.00 | 84 | 1014.0 |
| 20260506230320 | 62 | 71 | 9.0 | 13.0 | 0.00 | 0.00 | 0.00 | 84 | 1014.0 |
| 20260506225708 | 62 | 68 | 10.0 | 13.0 | 0.00 | 0.00 | 0.00 | 83 | 1013.9 |
| 20260506225328 | 62 | 63 | 9.0 | 12.0 | 0.00 | 0.00 | 0.00 | 84 | 1013.9 |
| 20260506224711 | 62 | 75 | 9.0 | 12.0 | 0.00 | 0.00 | 0.00 | 84 | 1013.8 |
| 20260506224254 | 62 | 69 | 7.0 | 15.0 | 0.00 | 0.00 | 0.00 | 85 | 1013.8 |
| 20260506223707 | 63 | 77 | 9.0 | 15.0 | 0.00 | 0.00 | 0.00 | 83 | 1013.9 |
| 20260506223250 | 63 | 102 | 4.0 | 7.0 | 0.00 | 0.00 | 0.00 | 84 | 1013.8 |
| 20260506223110 | 64 | 160 | 2.0 | 4.0 | 0.00 | 0.00 | 0.00 | 84 | 1013.9 |
| 20260506222746 | 63 | 103 | 4.0 | 6.0 | 0.00 | 0.00 | 0.00 | 84 | 1013.8 |
| 20260506221838 | 64 | 122 | 2.0 | 5.0 | 0.00 | 0.00 | 0.00 | 83 | 1013.9 |
| 20260506221301 | 64 | 205 | 2.0 | 4.0 | 0.00 | 0.00 | 0.00 | 84 | 1013.9 |
| 20260506221250 | 64 | 156 | 2.0 | 5.0 | 0.00 | 0.00 | 0.00 | 83 | 1013.9 |
| 20260506221031 | 64 | 151 | 2.0 | 5.0 | 0.00 | 0.00 | 0.00 | 84 | 1013.9 |
| 20260506215831 | 64 | 145 | 1.0 | 5.0 | 0.00 | 0.00 | 0.00 | 83 | 1013.8 |
| 20260506215814 | 64 | 192 | 1.0 | 4.0 | 0.00 | 0.00 | 0.00 | 84 | 1013.9 |
| 20260506214706 | 64 | 88 | 2.0 | 8.0 | 0.00 | 0.00 | 0.00 | 83 | 1013.7 |
| 20260506214653 | 64 | 252 | 3.0 | 8.0 | 0.00 | 0.00 | 0.00 | 82 | 1013.8 |
| 20260506213758 | 64 | 180 | 2.0 | 6.0 | 0.00 | 0.00 | 0.00 | 80 | 1013.8 |
| 20260506213500 | 64 | 220 | 2.0 | 5.0 | 0.00 | 0.00 | 0.00 | 80 | 1013.8 |
| 20260506212755 | 63 | 233 | 3.0 | 10.0 | 0.00 | 0.00 | 0.00 | 79 | 1013.7 |
| 20260506212310 | 62 | 146 | 2.0 | 7.0 | 0.00 | 0.00 | 0.00 | 82 | 1013.8 |
| 20260506212307 | 62 | 59 | 4.0 | 5.0 | 0.00 | 0.00 | 0.00 | 78 | 1013.9 |
| 20260506212246 | 63 | 27 | 3.0 | 10.0 | 0.00 | 0.00 | 0.00 | 83 | 1013.9 |
| 20260506210744 | 62 | 336 | 1.0 | 5.0 | 0.00 | 0.00 | 0.00 | 77 | 1013.8 |
| 20260506210207 | 62 | 299 | 2.0 | 5.0 | 0.00 | 0.00 | 0.00 | 77 | 1013.7 |
| 20260506205757 | 62 | 306 | 2.0 | 3.0 | 0.00 | 0.00 | 0.00 | 78 | 1013.6 |
| 20260506205741 | 62 | 339 | 2.0 | 4.0 | 0.00 | 0.00 | 0.00 | 77 | 1013.6 |
| 20260506205248 | 62 | 326 | 2.0 | 4.0 | 0.00 | 0.00 | 0.00 | 78 | 1013.6 |
| 20260506204326 | 62 | 48 | 0.0 | 2.0 | 0.00 | 0.00 | 0.00 | 77 | 1013.6 |
| 20260506203707 | 62 | 340 | 0.0 | 3.0 | 0.00 | 0.00 | 0.00 | 77 | 1013.5 |
| 20260506203317 | 62 | 297 | 1.0 | 3.0 | 0.00 | 0.00 | 0.00 | 77 | 1013.4 |
| 20260506203148 | 62 | 322 | 0.0 | 0.0 | 0.00 | 0.00 | 0.00 | 77 | 1013.3 |
| 20260506202816 | 62 | 337 | 1.0 | 3.0 | 0.00 | 0.00 | 0.00 | 77 | 1013.4 |
| 20260506201715 | 62 | 322 | 0.0 | 3.0 | 0.00 | 0.00 | 0.00 | 77 | 1013.2 |
| 20260506201207 | 62 | 322 | 0.0 | 3.0 | 0.00 | 0.00 | 0.00 | 77 | 1013.1 |
| 20260506200725 | 62 | 302 | 0.0 | 2.0 | 0.00 | 0.00 | 0.00 | 77 | 1013.1 |
| 20260506200300 | 63 | 41 | 1.0 | 3.0 | 0.00 | 0.00 | 0.00 | 76 | 1013.0 |
| 20260506195902 | 63 | 217 | 1.0 | 3.0 | 0.00 | 0.00 | 0.00 | 76 | 1012.9 |
| 20260506195826 | 63 | 197 | 1.0 | 3.0 | 0.00 | 0.00 | 0.00 | 76 | 1013.0 |
| 20260506194708 | 63 | 218 | 0.0 | 0.0 | 0.00 | 0.00 | 0.00 | 75 | 1012.8 |
| 20260506194319 | 63 | 218 | 0.0 | 3.0 | 0.00 | 0.00 | 0.00 | 74 | 1012.7 |
| 20260506193708 | 64 | 218 | 0.0 | 3.0 | 0.00 | 0.00 | 0.00 | 74 | 1012.6 |
| 20260506193553 | 64 | 165 | 0.0 | 2.0 | 0.00 | 0.00 | 0.00 | 74 | 1012.5 |